GFSSGP_250_rhum_153.txt.gz
RH
85 48 38 30 32 27 21 20 24 24 32 34 44 55 56 60 65 62 60 58 59 58 58 65 71 76 78 73 51 49 45 42 39 35 32 33 38 39 38 33 29 22 16 17 25 26 22 21 20
42 36 38 37 29 45 52 28 26 23 23 19 20 23 32 42 43 48 49 47 53 57 54 50 47 51 58 62 54 44 44 40 38 35 34 32 31 29 24 20 17 14 12 11 15 22 16 20 23
55 53 45 36 28 28 42 40 35 30 45 39 28 22 19 18 16 19 26 28 31 39 47 46 41 39 38 39 35 36 31 27 24 21 21 20 19 19 17 16 15 14 13 13 12 13 16 26 18
72 70 59 40 34 28 29 36 51 66 79 98 61 31 21 19 19 21 19 17 16 18 20 24 28 29 49 53 43 33 28 22 19 19 16 18 17 16 17 18 19 20 19 19 16 15 14 23 18
70 63 53 38 40 25 32 51 39 40 62 99 83 46 28 24 22 24 20 19 19 19 19 23 25 24 32 47 49 39 24 21 20 18 21 22 21 22 22 21 21 19 20 21 21 20 18 20 20
54 56 60 54 32 32 26 42 47 42 38 42 54 45 39 30 24 23 24 22 24 30 32 34 38 40 34 25 27 27 25 20 23 21 20 20 25 28 24 25 24 21 23 22 20 22 23 20 22
38 37 35 29 26 40 28 26 34 34 32 34 39 35 56 41 27 26 28 32 33 40 42 41 35 30 34 33 28 27 26 24 18 25 30 25 24 29 29 25 27 24 23 25 26 23 24 24 24
24 24 22 24 25 27 34 30 32 33 33 31 35 40 64 80 41 31 33 36 40 38 36 36 41 36 34 42 39 35 29 28 39 58 55 58 53 56 53 65 63 48 31 25 25 29 28 26 26
22 26 24 22 21 22 23 28 25 27 35 29 32 39 40 60 80 52 44 36 39 43 42 43 34 28 25 23 24 35 35 45 42 49 56 48 40 36 42 47 56 62 71 78 70 51 42 35 27
26 26 25 31 33 20 20 25 23 32 47 43 32 45 71 69 61 67 59 59 48 46 54 59 40 36 37 41 37 40 44 52 64 75 85 90 68 55 54 52 50 58 68 73 65 55 47 42 31
34 27 25 28 32 30 28 25 26 33 45 45 33 37 59 71 91 91 85 57 42 37 36 43 45 50 55 60 55 50 52 61 51 48 44 53 60 52 57 42 36 42 56 71 64 46 39 41 35
27 25 24 23 28 28 29 29 33 33 34 38 34 46 46 71 100 96 83 76 48 33 36 60 87 100 86 68 71 72 64 59 50 50 46 46 44 44 44 37 28 34 39 58 55 44 41 40 39
21 18 16 17 16 21 28 27 36 46 55 50 36 44 55 60 100 100 100 75 63 63 72 80 67 75 79 72 82 90 80 60 47 44 37 31 31 35 39 42 40 39 37 42 56 45 46 39 45
30 27 22 36 23 44 46 47 54 55 33 47 44 53 57 66 100 100 100 100 100 100 100 98 98 92 98 98 95 79 60 42 38 35 32 30 31 36 36 37 45 38 36 38 56 46 58 43 57
39 38 40 59 67 100 63 53 63 63 49 56 72 84 92 100 100 100 100 100 100 100 100 100 100 92 78 74 56 46 43 48 44 36 31 30 32 34 32 35 30 44 35 42 39 54 56 44 52
48 41 40 35 42 80 97 97 95 71 59 76 100 100 100 100 100 100 100 100 100 100 100 100 100 90 68 44 35 35 33 34 39 42 38 31 28 26 25 26 25 50 72 53 65 42 41 46 45
44 55 62 44 34 32 29 46 97 84 86 98 95 82 100 100 95 97 97 96 99 98 97 90 78 56 47 47 46 42 39 43 34 30 27 27 24 22 20 20 22 23 58 62 62 58 38 50 42
66 54 54 50 57 54 43 33 38 64 94 96 94 88 100 99 53 36 39 45 51 57 52 49 41 53 57 54 56 46 35 35 28 21 21 21 22 22 17 16 18 20 25 58 52 93 61 52 42
96 93 89 79 63 64 58 44 32 28 42 81 86 82 80 89 73 79 85 72 74 77 70 71 71 63 56 50 35 28 29 24 19 20 22 20 16 14 14 16 17 20 21 28 51 78 82 62 65
100 100 100 80 65 59 49 49 42 34 31 38 45 56 63 61 63 56 51 43 39 41 44 41 36 32 29 28 26 25 22 23 22 20 16 13 12 12 13 16 18 19 20 22 29 63 100 89 63
98 100 100 93 88 72 60 57 62 56 52 41 43 40 34 43 50 47 36 32 34 37 35 32 29 30 28 29 28 28 28 24 19 18 15 14 14 13 11 11 14 19 18 21 22 46 80 100 88
100 100 98 84 79 80 63 57 54 57 48 48 52 47 55 54 47 42 42 35 33 36 34 34 36 36 32 31 29 28 24 23 21 15 15 14 13 12 12 11 10 15 20 18 24 24 70 83 99
70 86 98 99 86 73 64 57 60 50 53 52 48 56 56 48 38 46 32 34 37 34 32 33 32 30 28 29 28 26 24 20 15 14 17 16 12 9 8 9 9 11 17 16 21 23 53 70 72
78 85 100 98 99 60 72 71 52 57 64 63 48 42 43 50 55 48 44 50 37 37 36 43 41 34 31 28 29 25 22 21 18 18 18 14 12 10 8 7 10 10 12 17 17 24 42 69 72
100 100 100 80 69 68 80 75 51 55 67 60 66 63 52 56 59 65 80 88 43 41 43 54 45 46 40 35 33 28 25 22 19 19 16 13 10 8 9 7 5 7 9 14 15 20 40 64 80
100 100 100 100 100 98 94 81 93 73 86 82 66 56 55 54 53 64 66 52 54 45 60 55 52 61 42 36 36 36 32 21 21 20 14 9 8 11 9 6 4 4 5 8 14 16 39 55 66
100 100 100 100 100 100 98 79 100 100 100 99 71 62 69 61 57 87 99 91 73 57 58 48 60 62 52 38 39 36 32 22 22 20 15 10 9 8 8 6 4 4 5 5 11 14 33 54 59
100 100 100 100 100 100 100 100 97 98 100 100 96 89 74 78 82 73 66 64 71 58 49 69 62 63 51 40 38 37 36 27 26 22 17 20 16 8 7 6 4 3 4 4 9 11 30 39 66
100 100 100 100 100 100 100 92 84 99 100 96 95 91 84 65 64 84 88 77 62 68 73 59 68 58 52 36 39 40 40 29 27 23 22 32 18 9 6 5 4 4 4 4 6 11 24 40 72
99 89 85 99 100 100 100 99 100 100 100 100 92 83 74 73 60 70 81 80 67 83 68 92 69 48 51 34 39 41 42 31 29 28 37 42 28 14 6 5 4 4 3 4 6 12 21 47 90

GFSSGP_250_rhum_156.txt.gz
RH
36 29 61 48 34 26 26 26 31 26 22 18 21 31 37 38 38 41 36 34 46 51 57 52 52 54 57 52 52 51 51 58 61 64 55 51 45 32 32 30 28 22 21 22 22 21 20 15 12
53 46 43 34 35 31 33 28 38 41 36 33 27 22 21 23 24 26 29 30 30 34 36 37 44 46 50 51 48 48 50 50 44 40 38 38 35 33 27 24 21 15 17 17 16 15 13 11 10
40 58 56 46 36 37 33 35 37 44 47 62 60 34 24 28 35 28 21 19 22 22 24 23 25 31 33 33 33 35 38 41 40 35 35 36 31 26 20 17 15 14 15 15 17 16 16 15 15
45 44 49 38 43 34 34 39 47 43 41 35 40 36 39 41 64 44 29 22 20 20 18 18 18 17 24 27 29 26 31 34 33 33 31 27 21 18 18 18 17 15 16 19 21 27 23 20 19
77 65 72 36 32 33 31 34 41 34 28 28 29 32 33 31 39 74 55 34 25 24 25 24 23 21 22 26 39 44 54 46 35 33 25 22 21 19 19 20 18 19 20 22 22 19 21 19 19
83 73 43 39 28 29 28 24 26 35 29 24 26 30 28 38 52 100 93 46 30 26 30 28 28 28 27 24 36 34 37 35 30 27 22 20 20 22 27 27 25 21 21 23 23 23 23 21 20
82 65 33 28 22 27 25 25 26 30 31 21 21 26 26 31 44 60 93 79 40 30 30 35 32 32 32 31 31 31 28 32 30 28 23 21 32 39 38 36 29 32 36 31 24 24 27 30 28
98 74 40 20 22 25 27 22 20 22 27 21 22 25 31 27 38 54 66 92 92 43 30 32 36 38 37 35 37 40 35 41 50 39 33 33 39 31 40 50 45 42 26 25 32 38 35 44 56
48 70 51 23 20 20 19 20 18 17 25 29 34 25 36 40 31 44 66 78 77 92 47 31 30 33 34 39 40 43 45 36 62 63 60 61 56 65 56 48 32 34 34 30 34 39 42 44 55
38 28 24 31 24 22 19 16 12 15 21 34 32 40 50 41 36 33 48 78 96 84 82 78 45 33 33 44 43 38 31 40 46 57 67 56 58 50 42 40 37 36 37 36 28 25 27 41 45
48 32 41 32 32 23 17 15 13 13 16 22 32 37 33 46 39 32 34 45 48 77 93 96 99 84 57 38 42 44 43 50 54 60 64 57 56 61 56 47 41 33 27 27 28 27 27 28 44
51 50 40 33 23 24 22 17 15 16 18 25 38 51 55 54 42 34 36 38 39 46 66 100 100 100 80 49 52 57 49 44 51 52 56 57 68 67 48 39 35 34 30 28 31 29 30 35 31
62 61 49 42 38 30 27 16 17 16 23 36 42 83 62 45 48 49 47 50 49 46 55 71 85 90 98 93 87 77 67 60 55 59 70 73 65 52 41 36 33 34 36 39 33 34 33 30 37
81 68 60 50 38 39 32 26 25 24 47 40 35 36 71 64 54 51 53 78 91 84 71 61 60 65 73 96 100 100 92 88 86 76 70 51 40 34 32 32 32 40 39 32 29 28 31 30 34
82 73 66 56 44 42 33 31 23 26 31 52 54 53 33 40 62 66 76 89 100 100 97 99 97 94 90 91 98 100 100 100 99 77 63 47 35 29 30 34 32 31 30 29 26 25 28 32 41
85 75 71 62 56 50 41 39 33 32 30 27 32 64 68 61 60 59 53 64 64 75 92 97 92 85 82 88 84 75 71 73 66 47 38 34 40 40 40 33 30 32 24 24 30 30 26 26 36
100 86 92 92 73 62 57 57 48 50 46 41 33 34 60 97 85 76 90 87 81 75 78 67 51 47 49 48 50 44 36 34 31 30 32 34 30 27 27 26 21 20 20 23 25 28 26 22 37
100 100 100 98 99 90 86 68 64 64 69 53 49 39 30 28 30 61 72 69 67 66 65 58 49 45 44 43 41 40 42 40 36 34 31 25 21 20 19 18 17 16 16 17 16 18 24 24 46
100 100 100 100 100 99 98 100 68 86 72 70 62 50 45 41 36 33 29 29 42 37 39 47 43 36 33 31 35 38 33 32 29 26 23 24 20 17 16 14 12 14 16 16 16 16 22 24 39
100 100 100 100 100 100 100 99 77 81 82 81 68 63 63 59 52 46 41 39 37 33 32 33 31 32 31 31 31 30 30 30 28 28 26 24 19 16 14 15 13 13 13 17 17 16 19 24 21
100 98 93 84 78 75 86 89 82 79 87 82 75 74 67 58 54 52 50 45 42 36 37 46 42 37 33 32 33 32 30 31 31 30 27 25 19 15 16 15 14 12 11 12 14 14 18 22 22
100 100 100 90 83 75 68 65 70 72 80 73 76 72 71 68 64 66 55 45 41 40 40 40 34 38 37 35 36 33 34 36 32 37 32 27 22 15 17 14 11 10 11 11 11 14 14 15 24
100 100 88 83 76 72 73 64 78 92 70 78 83 83 77 79 72 55 46 42 49 49 47 39 38 38 42 41 42 43 40 41 38 38 36 29 20 15 16 13 11 10 10 11 11 12 13 14 17
100 99 100 98 100 86 76 67 59 63 88 100 99 85 72 64 62 52 49 52 54 50 58 50 49 49 48 47 67 50 47 43 41 39 38 24 20 17 18 14 12 10 9 8 10 10 14 13 15
100 100 100 97 80 70 78 68 58 67 100 100 94 90 85 73 55 52 57 71 61 59 54 45 48 56 57 59 62 63 44 42 45 41 37 30 24 24 18 13 10 9 9 8 7 8 10 15 14
100 100 100 100 100 100 88 58 60 63 81 100 100 100 98 89 82 79 86 68 56 66 68 60 62 56 53 54 69 56 44 43 54 43 40 32 25 22 19 13 8 10 10 8 6 6 7 13 13
100 100 100 100 100 100 92 85 81 78 75 83 91 100 100 100 94 98 90 88 84 70 60 63 63 65 58 56 71 66 62 58 52 51 44 35 26 21 21 16 14 17 14 10 6 6 6 8 11
100 100 100 100 100 100 100 100 93 94 79 73 89 91 100 100 100 94 80 74 72 85 78 60 65 75 72 61 74 88 82 72 52 62 46 37 29 22 22 19 15 17 14 8 6 5 5 5 10
100 100 100 100 100 100 96 88 90 100 100 100 100 99 100 98 86 71 60 62 79 83 77 68 73 87 67 62 69 91 95 66 60 66 44 42 34 24 21 20 16 14 18 7 5 5 4 5 8
100 100 100 100 100 100 100 82 92 96 100 100 100 100 95 78 76 67 68 66 61 80 82 74 83 75 67 64 81 97 77 62 70 58 43 41 37 27 21 20 19 24 17 9 5 5 4 4 6

GFSSGP_250_rhum_162.txt.gz
RH
65 78 72 62 41 44 44 51 37 33 32 30 26 22 19 19 20 21 18 16 16 16 17 17 18 20 25 24 26 31 30 31 34 34 32 36 48 44 35 35 37 40 40 40 39 34 32 34 32
77 51 75 84 66 51 43 39 44 50 46 39 35 30 27 23 21 23 21 20 19 16 16 17 17 17 18 18 29 30 29 31 30 29 30 31 32 34 35 37 35 36 35 35 30 34 29 30 25
77 59 52 85 100 68 52 60 50 46 43 44 44 40 35 29 25 24 23 25 22 20 18 17 17 18 18 18 20 20 18 21 23 23 22 25 26 29 29 29 29 31 33 30 32 28 25 20 25
77 60 51 54 100 100 77 87 71 62 43 42 44 42 33 28 22 23 23 24 23 19 17 18 18 20 21 20 26 24 19 18 17 18 20 20 21 23 29 29 37 38 36 29 23 20 22 17 20
96 78 52 43 55 100 100 91 83 63 50 37 30 25 23 23 22 22 25 21 20 19 16 17 18 22 26 27 30 32 24 21 22 24 30 32 34 39 40 45 41 29 27 24 24 22 21 21 20
91 69 51 43 54 91 88 84 82 71 56 27 28 28 28 22 21 21 21 19 19 20 19 18 19 22 27 33 40 46 37 29 36 40 48 69 82 85 68 42 33 31 31 36 33 45 47 37 31
100 60 48 78 87 77 94 99 95 79 76 25 25 23 22 16 12 13 12 12 14 19 21 22 27 28 29 32 49 58 57 37 34 36 36 35 30 30 37 38 39 38 30 40 44 38 44 40 30
70 63 55 66 100 85 96 63 55 75 75 47 35 23 16 16 16 15 14 13 14 21 34 37 37 34 37 36 56 67 68 61 39 37 39 38 38 38 36 45 45 36 36 41 51 50 46 39 37
92 74 63 63 96 100 92 73 54 45 46 40 33 21 19 21 18 16 14 17 17 26 36 42 44 40 33 34 54 61 70 90 84 53 42 38 38 39 38 40 43 49 46 46 52 59 56 53 49
88 82 67 63 87 100 100 77 66 55 39 36 28 23 26 24 17 16 17 24 41 42 46 51 51 40 30 26 30 48 62 60 77 70 68 55 40 37 44 46 48 53 51 44 41 47 49 48 52
97 89 71 68 88 100 100 76 61 61 55 36 38 34 29 23 19 18 19 22 24 31 62 62 50 36 28 26 33 37 47 61 69 70 66 54 54 40 37 44 41 49 44 44 44 46 54 56 59
99 92 70 75 79 100 100 69 70 75 50 49 41 37 31 26 25 26 26 22 24 23 36 39 38 39 33 28 36 52 55 53 61 68 72 82 86 88 76 60 51 58 79 88 81 69 67 69 56
67 78 72 85 100 100 87 65 95 74 68 54 47 42 38 34 31 33 30 30 29 29 28 25 30 33 32 42 42 35 52 84 87 78 76 77 87 87 81 86 80 73 69 57 50 63 82 76 67
67 56 62 84 100 100 87 79 90 96 80 62 50 40 45 42 42 36 39 34 35 37 37 32 28 33 29 37 47 55 62 62 76 94 76 68 67 60 56 55 52 56 51 50 63 76 70 61 60
40 68 98 94 100 96 98 100 100 98 66 64 47 54 50 38 46 48 46 41 40 45 44 38 32 30 37 57 72 73 64 62 52 46 46 42 40 38 38 36 30 29 28 27 25 24 25 27 33
92 100 100 100 100 100 100 100 100 94 57 47 47 48 45 51 56 62 56 54 48 53 51 48 41 39 37 41 46 44 40 40 37 35 36 34 32 30 31 30 28 27 25 24 22 20 21 20 19
61 78 100 100 100 100 100 100 92 72 71 62 63 68 67 59 61 70 70 66 59 60 57 52 43 43 42 43 42 42 43 44 39 33 31 30 29 29 29 29 29 28 26 27 25 24 22 20 18
99 100 100 100 100 82 87 97 93 96 97 78 89 72 67 73 83 81 91 75 74 65 48 47 45 44 37 34 38 43 44 45 40 33 30 31 32 35 37 35 34 32 30 27 26 24 23 21 20
100 48 64 100 100 100 100 100 97 100 93 100 100 100 100 100 100 99 86 76 68 63 57 46 44 40 36 36 39 38 42 43 40 34 34 35 35 38 39 40 39 39 37 35 29 30 28 23 18
85 98 82 76 66 75 90 97 92 90 100 100 100 100 100 100 100 99 98 82 67 64 56 55 49 40 39 34 34 36 38 42 40 38 37 36 38 39 37 41 45 42 44 48 47 41 33 23 18
91 82 77 89 100 100 100 100 96 82 95 100 100 100 100 100 100 89 100 92 80 67 65 47 39 38 39 37 36 38 38 42 42 46 48 48 45 44 44 49 50 50 49 52 52 43 37 27 25
80 97 100 95 100 100 97 93 84 100 100 100 100 100 98 89 97 100 98 90 91 85 58 56 49 42 38 37 36 37 40 44 55 56 58 55 55 50 48 53 55 51 52 54 55 51 40 28 24
90 85 97 100 96 81 61 59 59 100 100 100 100 100 100 100 100 100 100 100 89 80 77 74 70 64 52 43 43 44 45 49 58 71 69 60 64 56 55 57 62 64 65 59 56 58 48 31 23
97 94 100 100 100 86 88 68 63 89 100 100 100 100 100 100 100 100 100 100 84 77 77 72 68 61 68 55 55 58 54 64 72 82 89 80 72 54 52 64 66 64 69 61 57 55 45 32 21
100 94 98 97 94 88 100 94 83 82 100 100 100 100 100 100 100 100 100 100 86 77 73 74 81 69 62 68 63 68 70 73 77 82 82 93 75 64 54 65 70 67 68 63 63 51 44 31 20
100 100 100 100 100 92 73 78 68 57 77 83 100 100 100 100 100 100 100 100 100 95 90 86 69 83 71 68 69 71 75 82 86 80 85 83 65 57 64 73 74 67 70 72 62 55 44 33 24
100 100 100 100 100 100 100 99 100 81 81 84 79 95 100 100 100 100 100 99 95 100 100 100 78 71 73 72 72 78 67 72 77 62 62 65 62 66 85 86 85 84 68 75 56 56 41 33 25
100 100 100 99 100 99 100 100 100 100 93 94 98 95 95 97 94 89 89 100 99 92 86 84 88 83 77 81 85 73 68 66 74 67 66 63 74 83 84 94 92 83 73 71 58 50 40 33 26
100 100 100 100 99 100 96 97 100 100 100 100 100 100 97 88 88 96 100 100 100 98 98 95 96 100 100 100 96 81 82 79 72 75 79 85 86 84 78 93 91 90 84 74 61 49 40 36 27
100 100 100 100 86 90 99 100 100 100 100 100 100 100 100 100 95 92 96 99 100 100 100 90 76 71 77 89 82 81 77 96 100 94 94 88 91 84 83 83 92 89 90 78 63 50 43 39 26

GFSSGP_250_rhum_165.txt.gz
RH
74 52 61 57 56 72 70 56 38 42 48 48 39 34 31 28 24 24 24 18 16 14 13 12 13 13 13 14 15 15 17 19 27 24 26 33 37 36 37 40 41 40 35 52 51 46 35 37 36
55 58 86 64 47 47 55 86 65 53 46 42 41 40 39 37 37 28 25 23 22 20 16 16 16 14 13 13 13 14 15 18 20 19 22 28 28 30 30 30 30 31 29 33 33 35 34 34 30
69 63 64 72 61 54 44 93 67 73 66 48 46 46 40 35 34 34 32 26 22 22 21 20 19 17 14 13 14 14 15 17 21 23 20 18 18 20 23 25 23 24 27 28 32 35 33 29 30
77 78 88 90 76 56 50 49 84 100 69 65 47 50 53 35 29 25 22 21 18 18 23 22 20 18 17 17 16 17 17 19 19 25 22 21 21 21 23 23 22 24 26 31 34 36 33 31 22
63 54 92 99 94 73 54 56 60 96 100 71 55 65 70 30 24 23 22 18 15 13 16 16 17 17 22 24 22 23 24 21 26 29 28 23 25 28 35 35 38 52 46 46 42 34 30 28 26
82 83 72 98 92 78 60 52 74 78 94 81 62 54 89 44 25 23 20 13 14 14 13 13 13 20 30 32 30 29 27 29 37 41 36 31 26 28 37 47 46 45 46 45 37 34 30 31 32
100 100 97 98 100 64 49 75 100 96 99 100 93 55 80 68 37 29 17 20 19 16 15 15 18 20 33 43 40 39 32 31 38 48 50 43 36 33 34 33 33 35 37 48 42 44 41 40 45
83 100 94 92 86 90 70 55 86 95 100 100 66 63 64 39 36 21 19 24 16 14 13 13 18 21 32 41 47 45 38 40 62 73 68 73 62 42 33 35 37 40 43 39 47 52 42 48 46
24 44 99 60 92 83 85 53 68 100 100 93 69 58 47 31 38 25 26 21 18 16 16 16 19 24 37 44 45 38 29 32 41 55 67 62 64 72 61 43 36 36 39 43 45 48 60 67 58
37 47 78 89 100 98 77 62 57 100 100 100 77 68 54 46 29 30 30 24 23 22 21 20 21 24 46 46 34 31 28 30 42 44 46 58 89 92 81 75 68 63 44 39 52 51 57 61 54
27 46 43 50 83 98 79 78 46 100 100 87 84 70 70 48 37 39 35 32 33 28 28 28 23 25 22 21 21 24 26 28 37 53 62 66 65 83 96 94 88 76 79 64 56 52 54 52 47
30 26 46 64 94 95 90 67 59 93 100 100 70 77 79 46 52 44 41 36 33 36 32 34 27 24 25 23 24 25 25 30 40 44 51 69 81 86 94 93 80 77 75 74 68 55 52 57 55
31 29 38 39 63 80 80 53 61 100 100 87 72 92 83 66 59 51 43 31 28 38 35 40 36 29 33 33 28 26 26 31 40 56 55 69 92 89 85 98 89 87 78 65 58 57 58 57 64
33 26 26 28 53 66 50 40 65 100 100 92 69 100 91 89 66 59 40 34 36 36 39 43 43 40 36 31 31 32 29 30 33 45 48 42 39 41 43 45 40 38 36 37 37 38 36 34 35
35 32 24 22 25 42 48 48 79 98 100 53 98 100 100 93 81 56 49 40 33 44 46 42 43 46 39 38 31 32 29 28 34 40 40 41 40 42 36 32 34 32 31 27 26 26 26 27 26
33 38 28 28 30 40 47 95 98 92 100 100 100 100 100 95 77 65 51 35 31 42 44 52 51 56 50 41 38 34 33 32 31 30 37 41 44 48 42 33 30 30 30 30 28 26 25 23 22
30 31 30 42 61 53 82 99 100 100 100 100 100 78 90 100 86 50 48 41 37 47 50 74 74 73 56 42 41 34 32 28 26 26 26 28 37 39 39 33 32 31 31 30 30 30 30 28 25
32 34 26 30 61 98 94 100 99 71 99 99 100 100 98 100 100 74 69 87 72 73 69 88 78 76 63 42 41 36 36 30 28 26 28 33 39 40 38 36 36 34 36 37 36 35 32 30 28
38 38 37 27 28 52 96 100 100 100 100 100 100 100 100 92 80 94 98 86 79 89 98 97 62 67 49 53 36 39 40 34 31 29 31 35 38 43 40 39 41 44 48 46 44 44 43 36 33
77 58 57 61 32 30 34 92 99 87 37 57 52 56 58 65 89 96 100 98 100 100 93 61 52 64 57 48 45 47 44 34 34 37 38 35 41 41 44 41 43 49 57 53 47 46 48 48 41
100 84 75 51 41 45 38 51 55 60 100 100 100 100 100 100 99 90 100 100 100 88 100 88 71 78 72 52 52 56 46 48 45 40 40 45 46 49 46 44 42 49 55 62 59 54 47 56 64
100 100 93 81 55 39 47 86 100 96 100 100 98 100 100 100 99 100 100 100 100 100 100 100 99 100 84 68 76 59 54 55 55 46 43 56 59 61 57 54 56 61 59 50 58 57 51 52 68
93 100 100 100 85 71 54 51 97 100 100 100 100 100 99 91 100 100 100 100 100 100 100 100 100 100 100 100 92 73 64 66 67 59 57 65 65 65 67 64 66 65 61 58 51 56 62 65 71
100 100 98 92 95 73 78 67 68 100 100 100 100 100 97 77 72 80 84 98 100 100 100 100 100 100 100 100 100 98 78 82 70 69 71 81 81 78 78 73 63 60 62 55 56 60 70 82 77
100 100 100 88 96 63 100 92 98 93 92 94 100 100 100 100 100 100 100 100 100 100 100 100 100 100 100 100 100 83 82 93 88 86 90 92 97 88 80 75 65 68 68 66 68 64 72 75 85
100 100 100 100 100 99 80 93 100 99 67 75 69 77 72 99 100 99 84 86 83 96 100 100 100 100 100 100 81 83 100 100 100 100 100 99 89 95 92 85 79 77 80 79 76 81 86 85 78
100 100 100 100 100 100 100 100 86 88 91 84 69 89 76 63 85 81 92 84 79 55 66 84 86 83 84 93 100 100 100 100 93 92 81 79 91 83 82 74 91 90 74 70 87 75 87 85 72
99 100 100 95 94 99 99 100 100 100 100 100 100 91 91 100 100 100 100 92 80 77 82 76 91 100 87 80 84 93 92 98 100 95 79 76 73 79 75 81 79 76 75 82 81 84 87 84 72
100 100 100 100 100 100 100 100 100 100 92 72 78 72 79 82 75 85 100 100 100 100 97 99 100 100 100 92 65 82 91 87 76 83 76 83 84 88 85 80 84 100 93 84 80 76 66 70 76
100 100 100 100 100 100 100 100 100 100 100 100 81 69 64 74 93 100 100 100 100 100 100 100 100 100 100 100 100 99 99 100 100 90 90 87 87 86 87 97 77 80 92 78 72 71 66 63 73